Volver al catálogo

SATCOM 3 DEB

ActivoHEO
NORAD 49955·DEBRIS·🇺🇸 United States

Lanzado Dec 7, 1979 desde Cape Canaveral Space Force Station

Loading…

Próximos Pases (próximas 24 horas)

TLE

ActualizadoSource: Space-Track

Época: Sep 14, 2026, 00:08 UTC

1 49955U 79101Z   26257.00623268 -.00000161  00000-0  00000-0 0  9998
2 49955   8.3513  93.8379 4800156  87.2853 324.8471  1.81796624 80247

Sigue SATCOM 3 DEB en tiempo real con AllMySat

Download on the App Store